{"data":{"norad_id":62374,"epoch":"2026-09-19T17:40:02.313696Z","epoch_age_seconds":84125,"freshness":"FRESH","line1":"1 62374U 24246A   26262.73613789 -.00000237  00000+0  00000+0 0  9993","line2":"2 62374   0.4864 312.6129 0001254 140.9448 316.5372  1.00267961  6513","mean_motion":1.00267961,"eccentricity":0.0001254,"inclination_deg":0.4864,"raan_deg":312.6129,"arg_perigee_deg":140.9448,"mean_anomaly_deg":316.5372,"bstar":0,"rev_number":651,"period_min":1436.1516736139,"perigee_km":35782.379409454,"apogee_km":35792.954593097,"semimajor_km":42165.804001276,"source":"CELESTRAK","updated_at":"2026-09-20T09:00:35.340432Z"}}